Wind_Speed
56 59 62 66 69 73 76 79 82 86 89 92 96 100 104 107 111 115 118 122 126 130 134 137 141 144 147 149 152 153 155 156 157 158 159 159 160 160 160 160 160 159 159 158 158 158 158 158 158 157 157 156 156 155 154 153 152 152 151 150 150 149 148 148 147 147 146 145 145 144 143 142 141 140 139 138 137 136 135 134 133 132 130 129 127 125
54 57 61 64 68 71 74 77 81 84 87 91 94 98 101 105 109 113 116 120 123 127 131 134 138 142 145 148 150 152 153 155 156 157 158 158 158 159 159 159 159 158 158 158 158 158 158 158 157 157 156 156 155 154 154 153 152 151 151 150 149 149 148 147 147 146 145 145 144 143 142 141 140 140 139 138 137 136 135 134 133 132 131 130 128 126
53 56 59 63 66 70 73 76 79 82 85 89 92 96 99 103 107 110 114 117 121 124 128 132 135 139 142 145 148 150 152 154 155 156 156 157 157 157 158 158 158 158 158 158 158 157 157 157 157 156 156 155 155 154 153 152 152 151 150 150 149 148 148 147 146 145 145 144 143 142 142 141 140 139 138 137 137 136 135 134 133 132 131 130 128 127
51 54 58 61 65 68 71 74 77 81 84 87 90 94 98 101 105 108 112 115 118 122 125 129 133 136 140 143 146 148 151 152 154 155 155 156 156 157 157 157 157 157 157 157 157 157 157 156 156 156 155 155 154 154 153 152 151 151 150 149 149 148 147 147 146 145 144 144 143 142 141 140 139 139 138 137 136 136 135 134 133 132 132 130 129 127
50 53 56 60 63 66 70 73 76 79 82 85 89 92 96 99 103 106 109 113 116 119 123 126 130 134 137 141 144 147 149 151 152 153 154 155 155 156 156 157 157 157 157 157 157 157 156 156 155 155 155 154 154 153 152 152 151 150 150 149 148 147 147 146 146 145 144 143 142 141 141 140 139 138 137 137 136 135 135 134 133 133 132 130 129 128
48 51 55 58 61 65 68 71 74 77 80 84 87 90 94 97 100 104 107 110 114 117 120 124 127 131 135 138 142 144 147 149 151 152 153 154 155 155 155 156 156 156 157 156 156 156 156 155 155 155 154 154 153 153 152 151 151 150 150 149 148 147 147 146 145 145 144 143 142 141 140 140 139 138 137 137 136 136 135 134 133 133 132 131 129 128
46 49 53 56 59 63 66 70 73 76 79 82 85 88 92 95 98 102 105 108 112 115 118 121 125 128 132 136 139 142 145 147 149 151 152 153 154 154 155 155 155 156 156 156 156 156 155 155 155 154 154 153 153 152 152 151 151 150 149 149 148 147 146 146 145 144 143 142 142 141 140 139 139 138 137 137 136 136 135 134 134 133 132 131 130 128
44 47 51 54 57 61 64 68 71 74 77 80 83 87 90 93 96 100 103 106 109 112 116 119 122 126 130 133 137 140 143 145 148 149 151 152 153 153 154 154 155 155 155 155 155 155 155 155 154 154 154 153 153 152 152 151 150 150 149 148 148 147 146 145 145 144 143 142 141 141 140 140 139 138 138 137 136 136 135 134 134 133 132 131 130 129
42 45 49 52 55 59 62 66 69 72 75 78 82 85 88 91 95 98 101 104 107 110 113 117 120 124 127 131 134 137 141 143 146 148 149 151 152 153 153 154 154 154 155 155 155 155 155 155 154 154 153 153 152 152 151 151 150 150 149 148 147 147 146 145 144 143 142 141 141 141 140 139 139 138 138 137 137 136 135 135 134 133 132 132 130 129
40 43 47 50 53 57 60 64 67 70 73 77 80 83 86 89 93 96 99 102 105 108 111 114 118 121 125 128 131 135 138 141 144 146 148 150 151 152 152 153 153 154 154 154 155 155 154 154 154 154 153 153 152 151 151 150 150 149 149 148 147 146 146 145 143 142 141 141 140 140 140 139 139 138 138 137 137 136 135 135 134 134 133 132 131 130
38 41 45 48 51 55 58 61 65 68 71 75 78 81 84 87 91 94 97 100 103 106 109 112 115 119 122 125 129 132 136 139 142 144 146 148 149 151 151 152 153 153 153 154 154 154 154 154 154 154 153 153 152 151 150 150 149 149 148 148 147 146 145 144 143 141 141 140 140 140 139 139 139 138 138 137 136 136 135 135 135 134 133 132 132 131
36 40 43 46 49 52 56 59 62 66 69 73 76 79 82 85 88 92 95 98 101 104 107 110 113 116 119 123 126 130 133 136 140 142 145 147 148 150 150 151 152 152 153 153 154 154 154 154 154 153 153 152 152 151 150 150 149 148 148 147 147 146 144 143 142 141 141 140 140 140 139 139 138 138 137 137 136 136 135 135 135 134 133 133 132 131
35 38 41 44 47 50 54 57 61 64 67 71 74 77 80 83 86 89 92 95 98 101 104 107 111 114 117 120 123 127 131 134 137 140 143 145 147 148 150 150 151 152 152 152 153 153 154 153 153 153 153 152 152 151 150 149 149 148 147 147 146 145 144 143 143 142 141 141 140 140 139 139 138 138 137 137 136 136 135 135 135 134 134 133 132 132
33 36 39 42 45 48 52 55 58 62 65 68 71 74 77 81 84 87 90 93 96 99 102 105 108 111 114 118 121 124 128 131 135 138 140 143 145 147 148 150 150 151 151 152 152 153 153 153 153 153 153 152 152 151 150 149 148 147 147 146 146 145 144 144 143 142 142 141 140 140 139 138 138 137 137 136 136 135 135 135 134 134 134 133 133 132
32 34 37 40 43 46 50 53 56 59 62 66 69 72 75 78 82 85 88 91 94 97 100 103 106 109 112 115 119 122 125 129 132 135 138 141 144 145 147 148 149 150 151 151 152 152 153 153 153 153 152 152 151 151 150 149 148 147 146 146 145 145 144 144 143 142 142 141 140 139 138 138 137 137 136 136 135 135 135 134 134 134 134 133 133 133
30 33 36 39 41 44 48 51 54 57 60 63 66 70 73 76 79 82 85 88 91 94 97 101 104 107 110 113 116 119 123 126 130 133 136 139 141 144 146 147 148 149 150 151 151 152 152 152 152 152 152 152 151 151 150 149 148 147 146 145 145 145 144 144 143 142 141 141 140 139 138 137 136 136 136 135 135 134 134 134 134 134 134 134 133 133
29 32 34 37 40 43 46 49 52 55 58 61 64 67 70 73 77 80 83 86 89 92 95 98 101 105 108 110 114 117 120 124 127 130 133 136 139 142 144 146 147 148 149 150 151 151 151 152 152 152 152 152 151 151 150 149 148 147 146 145 145 144 144 143 143 142 141 141 140 138 137 136 136 135 135 134 134 134 134 134 134 134 134 134 133 133
28 31 33 36 38 41 44 47 50 53 56 59 62 65 68 71 74 77 80 83 87 90 93 96 99 102 105 108 112 114 118 121 124 127 131 134 137 139 142 144 146 147 148 149 150 150 151 151 151 152 152 151 151 150 150 149 148 147 146 145 145 144 144 143 143 142 141 141 139 138 137 136 135 134 134 133 133 133 133 133 133 133 133 134 133 133
27 30 32 34 37 40 42 45 48 51 54 57 60 63 65 68 71 75 78 81 84 87 90 94 96 99 102 106 109 112 115 118 121 125 128 131 134 137 140 142 145 146 147 148 149 150 150 150 151 151 151 151 151 150 149 149 148 147 146 145 144 144 143 143 142 142 141 140 139 138 137 135 135 134 133 133 132 132 132 132 133 133 133 133 133 133
27 29 31 34 36 39 41 44 47 49 52 55 57 60 63 66 69 72 75 78 81 85 88 91 94 97 100 103 106 109 112 115 119 122 125 128 131 134 137 140 143 145 146 147 148 149 149 150 150 150 151 151 150 150 149 149 148 147 146 145 144 144 143 143 142 142 141 140 139 137 136 135 134 133 133 132 132 132 132 132 132 132 133 133 133 133
26 28 30 33 35 38 40 42 45 48 50 53 56 58 61 64 67 70 73 76 79 82 85 89 91 94 97 100 104 107 110 113 116 119 122 125 128 132 135 138 141 143 145 146 147 148 148 149 149 150 150 150 150 150 149 149 148 147 146 145 144 144 143 142 142 141 141 140 138 137 136 135 134 133 132 132 131 131 131 131 132 132 132 133 133 133
25 27 29 32 34 37 39 41 44 46 49 51 54 57 59 62 64 67 70 73 76 80 83 86 89 92 95 98 101 104 107 111 114 117 119 123 126 129 132 135 139 141 143 145 146 147 147 148 148 149 149 149 149 149 149 148 148 147 146 145 144 144 143 142 141 141 140 139 138 137 136 135 134 133 132 132 131 131 131 131 131 131 132 132 133 133
24 26 28 31 33 36 38 40 42 45 47 50 52 55 57 60 62 65 68 71 74 77 80 83 86 89 92 95 98 101 105 108 111 114 117 120 123 126 129 133 136 139 141 143 144 145 146 147 148 148 149 149 149 149 149 148 148 147 146 146 145 144 143 142 141 140 139 138 137 136 136 135 134 133 132 131 131 131 130 130 131 131 131 132 132 133
23 25 27 30 32 34 37 39 41 44 46 48 50 53 55 58 60 63 65 68 71 74 77 80 83 86 90 93 96 99 102 105 108 111 114 117 120 123 126 130 133 137 139 141 143 144 145 146 147 147 148 148 148 148 148 148 147 147 146 146 145 144 143 142 141 140 139 138 137 136 136 135 134 133 132 131 131 130 130 130 130 131 131 131 132 132
22 24 27 29 31 33 36 38 40 42 44 47 49 51 54 56 58 61 63 66 69 72 74 78 81 84 87 91 94 97 100 103 106 109 112 114 117 119 123 127 130 134 136 138 140 142 144 145 146 147 147 148 148 148 148 148 147 147 146 145 144 143 143 141 140 139 138 137 137 136 136 135 134 133 132 131 130 130 129 129 130 130 131 131 131 132
21 23 26 28 30 33 35 37 39 41 43 45 47 50 52 54 57 59 62 64 67 69 72 75 78 81 84 87 91 94 97 100 103 106 109 111 114 116 120 123 127 130 133 136 138 140 142 144 145 146 146 147 147 147 147 147 147 146 146 145 144 143 142 141 140 138 138 137 136 136 135 134 133 132 131 131 130 129 129 129 129 130 130 130 131 131
20 22 25 27 30 32 34 36 38 40 42 44 46 48 50 53 55 57 60 62 64 67 70 73 75 78 81 85 88 91 94 97 101 103 106 109 111 114 117 120 124 127 130 133 136 138 141 142 144 145 146 146 147 147 147 147 146 146 145 145 144 143 142 141 139 138 137 137 136 135 135 134 133 132 131 131 130 129 129 129 129 129 130 130 130 131
19 21 24 26 29 31 33 35 37 39 40 42 44 46 49 51 53 56 58 60 62 65 67 70 73 75 79 82 85 88 91 95 98 101 103 106 108 111 114 117 120 124 127 130 133 136 138 141 142 144 145 145 146 146 146 146 146 145 145 144 143 143 142 140 139 138 137 136 136 135 134 133 133 132 131 131 130 129 129 129 129 129 129 130 130 130
18 20 23 26 28 30 32 34 36 38 39 41 43 45 47 49 52 54 56 58 61 63 65 68 70 73 76 79 82 85 88 92 95 98 100 103 106 108 110 114 117 121 124 127 130 133 136 139 141 142 144 144 145 145 145 145 145 145 144 144 143 142 141 140 139 138 137 136 136 135 134 133 133 132 132 131 130 130 129 129 129 129 129 129 129 129
17 19 22 24 27 30 32 34 36 37 39 40 42 44 46 48 50 52 54 57 60 62 64 66 68 70 73 76 79 82 86 89 92 95 98 101 103 105 107 111 114 118 121 124 127 131 134 137 139 141 142 143 144 144 144 145 144 144 144 144 143 142 141 141 139 139 137 136 136 135 134 133 133 132 132 131 130 130 129 129 129 129 129 129 129 129
16 18 21 23 26 28 31 33 35 37 38 40 41 43 45 47 49 51 53 56 58 61 62 64 66 69 71 74 77 80 83 86 89 92 95 98 100 102 105 108 111 115 118 121 125 129 132 135 137 139 141 142 143 143 144 144 144 144 144 143 143 142 141 141 140 139 138 137 136 135 134 133 133 133 132 131 131 130 129 129 129 128 128 128 127 127
15 17 20 22 25 27 30 32 34 36 38 40 41 42 44 46 48 50 52 55 57 59 61 63 65 67 69 72 75 77 80 83 86 89 92 95 97 99 102 105 108 112 115 118 122 126 129 132 135 137 139 140 142 142 143 143 143 143 143 143 143 142 142 141 140 139 138 137 136 135 134 133 133 132 132 132 131 130 130 129 129 128 128 127 126 126
14 16 19 21 24 26 29 31 33 35 37 39 41 42 43 45 47 49 51 53 56 58 60 62 64 66 68 70 72 75 77 80 84 87 90 92 94 96 99 102 105 109 112 115 118 122 125 128 131 134 137 139 140 141 142 142 143 143 143 143 143 142 141 141 140 139 138 137 136 135 134 133 133 132 132 131 131 130 130 129 128 128 127 126 125 125
13 15 18 20 23 25 27 30 32 34 37 38 40 42 43 45 46 48 50 53 55 57 59 61 63 65 67 69 71 73 76 79 82 85 87 89 91 93 96 99 103 106 109 113 116 119 121 125 128 131 134 136 138 140 141 142 142 143 143 143 142 142 141 141 140 139 138 137 136 135 134 133 132 132 132 131 131 130 129 129 128 127 126 125 124 124
13 14 17 19 22 24 26 29 31 33 36 38 39 41 43 44 46 47 50 52 54 56 58 60 62 64 66 68 70 72 75 78 81 83 85 87 88 90 93 96 100 103 106 109 112 116 119 122 125 128 132 134 136 138 140 141 142 142 142 142 142 141 141 140 139 139 138 137 136 135 134 132 132 131 131 131 130 130 129 128 127 126 125 124 123 122
12 13 15 18 20 23 25 27 30 32 34 36 38 40 42 44 45 47 48 50 53 55 57 59 62 64 66 68 70 72 74 77 79 81 83 84 86 88 91 94 97 100 104 106 109 112 116 119 122 126 129 132 135 137 139 140 141 141 141 141 141 141 140 140 139 138 137 136 135 134 133 132 131 131 131 130 130 130 129 128 127 126 124 123 122 122
11 12 14 17 19 22 24 26 28 30 33 35 37 39 41 43 44 46 47 49 51 54 56 58 61 63 65 67 69 71 73 76 77 79 81 82 84 86 88 91 95 98 101 103 106 109 112 116 120 123 127 130 133 136 137 139 140 140 140 141 141 140 140 139 138 138 137 136 135 134 133 132 131 131 130 130 130 130 129 128 127 125 124 122 122 121
10 11 13 15 18 20 23 25 27 29 31 33 36 38 40 42 43 45 47 48 50 52 55 57 60 62 65 67 69 71 73 75 76 78 79 80 82 84 86 89 92 95 98 101 103 106 110 113 117 121 125 128 131 134 136 137 138 139 140 140 140 139 139 139 138 137 136 135 134 133 132 132 131 131 130 130 130 130 129 128 126 125 123 122 121 120
9 11 12 14 16 19 21 23 26 28 30 32 34 36 38 41 43 44 46 48 49 51 54 56 59 61 64 66 68 70 72 73 75 76 77 79 80 82 84 87 90 93 96 98 101 104 107 111 115 118 122 126 129 131 134 136 137 138 139 139 139 139 139 138 138 137 136 135 134 133 132 132 132 131 130 130 130 129 128 127 126 124 123 121 121 120
9 10 11 13 15 18 20 22 24 26 28 30 32 34 36 39 41 43 45 47 49 51 53 55 57 60 62 65 67 69 70 72 73 74 76 77 79 81 83 86 88 91 94 97 99 102 105 109 112 115 119 123 126 129 132 134 136 137 138 138 138 138 138 138 137 136 135 135 134 133 133 132 132 131 130 130 129 129 128 127 125 124 122 121 120 119
8 9 10 12 14 16 18 21 23 25 27 29 31 32 34 37 39 42 44 46 48 50 52 54 57 59 61 63 65 67 69 70 72 73 75 76 78 80 82 85 87 90 93 95 98 101 104 106 109 112 116 119 123 127 130 132 134 136 137 138 138 138 138 138 137 136 135 134 134 133 133 132 131 131 130 129 129 128 127 126 125 123 122 121 120 119
7 8 9 11 13 15 17 19 21 23 25 27 29 31 33 35 37 40 42 45 47 49 51 54 56 58 60 62 64 66 67 69 70 72 74 75 77 79 81 84 86 89 92 94 97 99 101 104 106 109 113 117 121 124 128 130 133 135 136 137 138 138 137 137 136 135 135 134 134 133 132 132 131 130 130 129 128 128 127 125 124 123 121 120 118 117
6 7 8 10 12 13 16 18 20 22 24 26 28 30 32 33 36 38 40 43 46 48 50 53 55 57 59 61 63 64 66 68 69 71 73 75 77 79 81 83 86 88 91 93 95 97 98 100 103 107 110 114 118 122 126 129 132 134 136 137 137 137 136 136 136 135 134 134 133 133 132 131 130 130 129 129 128 127 126 125 123 122 120 119 118 115
6 6 7 8 10 12 14 16 18 21 22 25 27 29 31 32 34 36 39 41 44 47 49 51 54 56 58 60 62 63 65 67 69 70 72 74 76 78 80 83 85 88 90 91 93 94 96 98 101 105 108 112 116 120 124 127 130 133 135 136 136 136 136 136 135 135 134 134 133 132 131 131 130 129 129 128 127 126 125 124 122 121 120 118 117 115
5 5 6 7 9 11 13 15 17 19 21 23 25 27 29 31 33 35 38 40 43 45 47 50 52 54 57 59 61 63 64 66 68 70 71 73 76 78 80 82 84 86 88 89 90 91 94 97 100 103 107 110 114 118 122 126 129 132 134 135 136 136 136 136 135 134 134 134 133 132 131 130 129 129 128 127 126 126 125 120 116 116 119 118 116 115
5 5 5 6 8 10 12 14 16 18 20 22 24 26 28 30 32 34 36 39 41 44 46 48 51 53 55 58 60 62 64 65 67 69 71 73 75 77 79 81 83 84 85 86 88 90 92 96 99 102 105 109 112 116 120 124 127 130 133 134 135 135 135 135 134 134 134 133 132 131 130 129 129 128 127 127 126 125 124 122 121 120 118 117 115 114
5 4 4 6 7 9 11 13 15 17 19 21 23 25 27 29 31 33 35 38 40 42 45 47 49 52 54 56 59 61 63 65 66 68 70 73 75 76 78 80 81 82 83 85 87 89 92 94 97 100 103 107 111 115 119 123 127 129 131 133 134 134 134 134 134 133 133 132 131 131 130 129 128 127 126 126 125 124 123 122 120 119 118 116 114 113
5 4 4 5 6 8 10 12 14 16 18 20 22 24 26 28 30 32 34 36 39 41 44 46 48 51 53 55 57 59 62 64 66 68 70 72 73 75 77 78 79 80 82 83 85 88 90 92 95 98 101 105 109 113 118 121 125 128 130 131 132 133 133 133 133 133 132 131 130 130 129 128 127 126 126 125 124 123 122 121 120 119 117 116 114 111
5 4 3 4 6 8 9 11 13 15 17 19 21 23 25 27 29 31 33 36 38 40 42 45 47 49 52 54 56 58 60 63 65 67 68 70 72 73 75 76 77 79 80 82 84 86 88 90 93 95 99 103 107 111 115 119 122 125 128 129 131 131 132 132 132 132 131 130 130 129 128 127 126 125 124 124 123 122 121 120 119 118 116 115 114 112
5 3 3 3 5 7 9 11 13 15 17 19 21 23 25 26 28 31 33 35 37 39 41 44 46 48 50 53 55 57 59 61 63 65 67 68 70 71 72 73 75 77 79 80 82 84 86 89 91 94 97 100 104 109 113 116 119 122 125 127 129 130 130 131 131 131 130 130 129 128 127 126 125 124 123 123 122 122 120 119 118 117 115 114 114 113
5 3 2 3 4 6 8 10 12 14 16 18 20 22 24 26 28 30 32 34 36 38 40 42 45 47 49 51 53 56 58 60 61 63 64 66 67 68 69 71 73 75 77 79 81 83 85 87 90 92 95 99 102 106 110 114 117 120 122 125 128 129 130 131 131 131 130 129 128 127 126 124 124 123 122 122 122 121 119 118 117 116 114 113 112 112
Wind_Direction
218 217 216 216 215 215 214 214 214 214 213 213 212 212 212 212 213 213 213 213 214 214 214 214 214 215 215 215 215 215 215 215 215 215 215 215 215 214 214 214 214 214 215 215 215 216 216 217 217 217 217 217 217 217 217 217 218 218 218 219 219 219 219 219 219 220 220 220 220 220 220 220 221 221 221 221 221 222 222 222 222 222 222 222 223 223
218 217 216 215 215 214 214 214 214 213 213 213 212 212 212 212 212 213 213 213 213 213 214 214 214 214 214 214 215 215 215 215 215 215 215 215 215 214 214 214 214 214 214 214 215 215 216 216 216 217 217 217 217 217 217 217 217 218 218 218 218 218 218 219 219 219 219 219 220 220 220 220 220 220 221 221 221 221 221 222 222 222 222 222 222 222
217 216 216 215 215 214 214 213 213 213 213 213 212 212 212 212 212 212 212 213 213 213 213 213 214 214 214 214 214 214 215 215 215 215 215 215 215 214 214 214 213 213 214 214 214 215 215 216 216 216 216 216 216 217 217 217 217 217 218 218 218 218 218 218 218 219 219 219 219 219 220 220 220 220 220 220 221 221 221 221 221 221 222 222 222 222
217 216 216 215 214 214 213 213 213 213 213 212 212 212 212 212 212 212 212 212 212 213 213 213 213 213 214 214 214 214 214 214 215 215 215 215 214 214 214 213 213 213 213 214 214 214 215 215 216 216 216 216 216 216 216 216 217 217 217 217 218 218 218 218 218 218 218 218 219 219 219 219 219 219 220 220 220 220 220 221 221 221 221 221 221 221
217 216 215 215 214 214 213 213 213 212 212 212 212 212 212 212 212 212 212 212 212 212 213 213 213 213 213 213 214 214 214 214 214 214 215 215 214 214 214 213 213 213 213 213 214 214 214 215 215 216 216 216 216 216 216 216 216 217 217 217 217 217 218 218 218 218 218 218 218 218 218 219 219 219 219 219 219 220 220 220 220 220 221 221 221 221
218 216 215 215 214 214 213 213 212 212 212 212 212 212 212 212 211 211 211 212 212 212 212 212 213 213 213 213 213 214 214 214 214 214 214 214 214 214 214 213 213 213 213 213 213 214 214 214 215 215 215 216 216 216 216 216 216 216 217 217 217 217 217 217 217 217 217 217 218 218 218 218 218 218 218 219 219 219 219 219 220 220 220 220 220 220
218 217 216 215 214 214 213 213 212 212 212 212 212 212 212 212 211 211 211 211 211 212 212 212 212 213 213 213 213 213 213 214 214 214 214 214 214 214 214 213 213 213 212 212 213 213 213 214 214 215 215 215 215 215 215 215 216 216 216 216 217 217 217 217 217 217 217 217 217 217 217 217 218 218 218 218 218 218 219 219 219 219 220 220 220 220
219 217 216 215 215 214 213 213 213 212 212 212 211 211 211 211 211 211 211 211 211 211 211 212 212 212 212 213 213 213 213 213 213 214 214 214 214 214 213 213 213 212 212 212 212 213 213 213 214 214 215 215 215 215 215 215 215 215 216 216 216 216 217 217 217 217 217 217 217 217 217 217 217 217 217 217 217 218 218 218 219 219 219 219 219 219
219 218 217 216 215 214 214 213 213 212 212 212 211 211 211 211 211 211 211 211 211 211 211 211 212 212 212 212 213 213 213 213 213 213 214 214 214 214 213 213 213 212 212 212 212 212 213 213 213 214 214 215 215 215 215 215 215 215 215 216 216 216 216 216 216 216 216 216 216 216 216 216 216 217 217 217 217 217 217 218 218 218 218 219 219 219
218 218 217 216 215 215 214 214 213 213 212 212 212 211 211 211 211 211 211 211 211 211 211 211 211 212 212 212 212 213 213 213 213 213 213 213 213 213 213 213 213 212 212 212 212 212 212 212 213 213 214 214 215 215 215 215 215 215 215 215 216 216 216 216 216 216 216 216 216 216 216 216 216 216 216 216 216 217 217 217 217 218 218 218 218 218
218 217 217 216 216 215 215 214 214 213 213 212 212 212 211 212 211 211 211 211 211 211 211 211 211 211 212 212 212 212 212 213 213 213 213 213 213 213 213 213 213 212 212 212 211 211 212 212 213 213 214 214 214 214 215 215 215 215 215 215 215 215 216 216 216 216 216 216 216 216 216 216 216 216 216 216 216 216 216 217 217 217 217 218 218 218
218 217 217 216 216 215 215 214 214 214 213 213 212 212 212 211 211 211 211 211 211 211 211 211 211 211 211 211 212 212 212 212 213 213 213 213 213 213 213 213 213 212 212 212 211 211 211 212 212 213 213 213 214 214 214 214 214 214 214 215 215 215 215 215 215 215 215 215 216 216 216 215 215 215 215 215 216 216 216 216 216 217 217 217 218 218
218 217 216 216 216 215 215 215 214 214 214 213 213 212 212 212 211 211 211 211 211 211 211 211 211 211 211 211 212 212 212 212 212 212 213 213 213 213 213 213 213 212 212 212 211 211 211 211 212 212 213 213 213 214 214 214 214 214 214 214 214 215 215 215 215 215 215 215 215 215 215 215 215 215 215 215 215 215 215 216 216 216 217 217 217 217
218 217 216 216 215 215 215 215 214 214 214 214 213 213 213 212 212 212 211 211 211 211 211 211 211 211 211 211 211 212 212 212 212 212 212 212 213 213 213 213 213 212 212 212 211 211 211 211 211 212 212 213 213 213 214 214 214 214 214 214 214 214 214 215 215 215 215 215 215 215 215 215 215 215 215 215 215 215 215 215 216 216 216 217 217 217
219 218 216 216 215 215 215 215 215 214 214 214 214 213 213 213 212 212 212 211 211 211 211 211 211 211 211 211 211 211 212 212 212 212 212 212 212 212 212 212 212 212 212 212 211 211 211 211 211 211 212 212 213 213 213 213 214 214 214 214 214 214 214 214 214 215 215 215 215 215 215 215 215 215 215 215 215 215 215 215 215 216 216 216 217 217
220 218 217 216 215 215 215 215 215 214 214 214 214 214 213 213 213 212 212 212 211 211 211 211 211 211 211 211 211 211 211 212 212 212 212 212 212 212 212 212 212 212 212 212 211 211 211 211 211 211 211 212 212 213 213 213 213 213 213 214 214 214 214 214 214 214 215 215 215 215 215 215 215 215 215 215 214 214 214 215 215 215 215 216 216 217
221 219 218 217 216 215 215 215 215 214 214 214 214 214 214 214 213 213 212 212 212 211 211 211 211 210 210 210 211 211 211 211 212 212 212 212 212 212 212 212 212 212 212 212 211 211 211 210 210 211 211 211 212 212 212 213 213 213 213 213 213 213 214 214 214 214 214 214 214 214 214 214 214 214 215 214 214 214 214 214 215 215 215 215 216 216
221 219 218 217 216 215 215 215 215 215 214 214 214 214 214 214 214 213 213 212 212 212 211 211 211 211 210 210 210 211 211 211 211 212 212 212 212 212 212 212 212 212 212 212 211 211 211 210 210 210 210 211 211 212 212 212 213 213 213 213 213 213 213 213 214 214 214 214 214 214 214 214 214 214 214 214 214 214 214 214 214 215 215 215 216 216
221 220 218 217 216 215 215 215 215 214 214 214 214 214 214 214 214 213 213 213 212 212 212 211 211 211 211 210 211 211 211 211 211 211 212 212 212 212 212 212 212 212 212 212 211 211 211 210 210 210 210 210 211 211 212 212 212 213 213 213 213 213 213 213 213 214 214 214 214 214 214 214 214 214 214 214 214 214 214 214 214 214 215 215 215 216
221 219 218 217 216 216 215 215 214 214 214 214 214 214 214 214 214 214 213 213 213 212 212 212 211 211 211 211 211 211 211 211 211 211 211 212 212 212 212 212 212 212 212 212 211 211 211 210 210 210 210 210 210 211 211 212 212 212 213 213 213 213 213 213 213 213 213 214 214 214 213 214 214 214 214 214 214 214 214 214 214 214 214 215 215 215
220 219 218 217 216 216 215 214 214 214 214 214 214 214 213 214 214 214 213 213 213 213 212 212 212 211 211 211 211 211 211 211 211 211 211 211 212 211 211 211 212 212 212 211 211 211 211 210 210 210 210 210 210 210 211 211 212 212 212 212 213 213 213 213 213 213 213 213 213 213 213 213 213 213 213 213 213 214 214 214 214 214 214 215 215 215
221 219 218 217 216 215 214 214 214 213 213 213 213 213 213 213 213 213 213 213 213 213 213 212 212 212 211 211 211 211 211 211 211 211 211 211 211 211 211 211 211 212 211 211 211 211 211 210 210 210 210 210 210 210 210 211 211 212 212 212 212 213 213 213 213 213 213 213 213 213 213 213 213 213 213 213 213 213 213 213 214 214 214 214 215 215
221 219 218 217 216 215 214 214 213 213 213 213 213 213 212 213 213 213 213 213 213 213 213 213 212 212 211 211 211 211 211 211 211 211 211 211 211 211 211 211 211 211 211 211 211 211 211 210 210 210 210 210 210 210 210 210 211 211 212 212 212 212 213 213 213 213 213 213 213 213 213 213 213 213 213 213 213 213 213 213 213 214 214 214 214 215
220 218 217 217 216 215 214 213 213 213 212 212 212 212 212 212 212 212 213 213 213 213 213 213 213 212 212 211 211 211 211 211 211 211 211 211 211 211 211 211 211 211 211 211 211 211 210 210 210 210 210 209 209 209 210 210 210 211 211 212 212 212 212 212 212 212 212 212 212 212 212 213 213 213 213 213 213 213 213 213 213 213 214 214 214 214
221 218 216 216 215 214 214 213 213 212 212 212 211 211 211 211 211 212 212 212 213 213 213 213 213 212 212 211 211 211 211 211 211 211 211 211 211 211 211 211 211 211 211 211 211 210 210 210 210 210 209 209 209 209 209 210 210 210 211 211 212 212 212 212 212 212 212 212 212 212 212 212 212 212 212 212 213 213 213 213 213 213 213 214 214 214
222 218 216 214 214 213 213 213 212 212 211 211 211 211 211 211 211 211 211 211 212 212 212 213 213 213 212 212 211 211 211 211 211 211 211 211 211 211 210 210 211 211 211 211 211 210 210 210 210 210 209 209 209 209 209 209 210 210 210 211 211 212 212 212 212 212 212 212 212 212 212 212 212 212 212 212 212 212 212 213 213 213 213 213 214 214
224 220 217 214 213 212 212 212 211 211 211 210 210 210 210 210 210 210 210 210 211 211 212 212 213 213 212 212 212 212 211 211 211 211 211 211 211 210 210 210 211 211 211 211 210 210 210 210 210 210 209 209 209 209 209 209 209 210 210 210 211 211 212 212 212 212 212 212 212 212 212 212 212 212 212 212 212 212 212 212 213 213 213 213 213 214
227 222 218 215 213 211 211 210 210 210 210 210 210 209 209 209 209 209 209 209 209 210 211 212 212 212 212 212 212 212 212 211 211 211 211 211 211 210 210 210 210 210 211 211 210 210 210 210 210 209 209 209 209 209 209 209 209 209 210 210 210 211 211 211 212 212 212 212 212 212 212 212 212 212 212 212 212 212 212 212 212 213 213 213 213 213
230 224 220 216 214 211 210 209 209 208 208 208 208 208 209 209 209 208 208 208 208 209 209 210 211 211 212 212 212 212 212 212 212 211 211 211 211 210 210 210 210 210 210 210 210 210 210 210 210 209 209 209 209 209 209 209 209 209 209 210 210 210 211 211 211 212 212 212 212 212 211 211 211 212 212 212 212 212 212 212 212 213 213 213 213 213
232 226 221 218 215 212 210 209 207 207 206 206 206 207 207 208 208 207 207 207 207 207 208 208 209 210 211 211 212 212 212 212 212 212 211 211 211 210 210 209 210 210 210 210 210 210 210 210 209 209 209 209 209 208 208 208 208 209 209 209 210 210 210 211 211 211 211 211 211 211 211 211 211 211 212 212 212 212 212 212 212 212 213 213 213 213
235 228 223 219 216 213 211 209 207 206 205 205 205 205 206 206 206 206 206 206 206 206 206 207 207 208 209 210 211 211 212 212 212 212 212 211 211 210 209 209 209 210 210 210 210 210 209 209 209 209 209 209 208 208 208 208 208 208 209 209 209 210 210 210 211 211 211 211 211 211 211 211 211 211 211 212 212 212 212 212 212 212 212 212 213 213
238 230 225 220 217 215 212 210 207 205 204 203 203 203 204 204 205 205 206 206 205 205 205 205 205 206 207 209 210 210 211 211 212 212 212 211 211 210 209 209 209 209 210 210 209 209 209 209 209 209 208 208 208 208 208 208 208 208 208 209 209 209 210 210 210 210 211 211 211 211 211 211 211 211 211 211 212 212 212 212 212 212 212 212 212 212
241 233 226 222 218 215 213 211 208 206 204 203 202 202 202 202 203 204 204 204 205 204 204 204 204 204 205 207 208 209 210 211 211 212 212 211 211 210 209 209 209 209 209 209 209 209 209 209 208 208 208 208 208 208 208 208 208 208 208 208 209 209 209 209 210 210 210 211 211 211 211 211 211 211 211 211 211 212 212 212 212 212 212 212 212 212
244 235 229 223 219 216 214 212 209 207 205 203 202 201 201 201 201 202 203 203 203 203 203 203 202 203 203 204 206 207 208 209 210 211 211 211 210 210 209 209 209 209 209 209 209 209 209 208 208 208 208 208 208 207 207 208 208 208 208 208 208 208 209 209 209 210 210 210 210 210 211 210 211 211 211 211 211 212 212 212 212 212 212 212 212 212
248 238 231 225 220 217 214 212 210 208 206 204 202 201 200 200 200 201 201 202 202 202 202 202 201 201 202 202 203 205 206 208 209 210 210 210 210 209 208 208 209 209 209 209 209 209 208 208 208 208 208 207 207 207 207 207 207 207 208 208 208 208 208 209 209 209 210 210 210 210 210 210 210 210 211 211 211 212 212 212 212 212 212 212 212 212
253 242 233 228 222 218 215 212 211 209 207 205 203 201 200 199 199 200 200 201 201 201 201 201 201 200 201 201 202 203 204 206 207 208 209 209 208 208 208 208 208 208 209 209 209 208 208 208 208 207 207 207 207 207 207 207 207 207 207 207 208 208 208 208 208 209 209 209 210 210 210 210 210 210 211 211 211 211 212 212 212 212 212 212 212 212
257 245 236 230 225 220 217 213 211 209 208 206 204 202 200 199 198 199 199 200 200 200 200 200 200 200 200 200 200 201 203 204 205 206 207 207 207 207 207 207 208 208 208 208 208 208 208 208 207 207 207 207 207 207 206 206 207 207 207 207 207 208 208 208 208 208 209 209 209 209 210 210 210 210 210 211 211 211 212 212 212 212 211 211 211 211
262 249 239 232 227 222 218 215 212 210 208 207 206 204 201 199 198 198 198 198 199 200 200 200 199 199 199 199 199 200 201 202 203 204 205 205 205 206 206 206 207 207 208 208 208 207 207 207 207 207 207 206 206 206 206 206 206 206 207 207 207 207 207 208 208 208 208 209 209 209 209 210 210 210 210 211 211 211 211 211 211 211 211 211 211 211
267 252 242 233 227 223 220 216 213 210 208 208 207 205 203 201 199 197 197 197 198 198 199 199 199 199 199 199 199 199 200 201 202 202 203 204 204 204 205 205 206 206 207 207 207 207 207 207 206 206 206 206 206 206 205 206 206 206 206 206 207 207 207 207 207 208 208 208 208 209 209 209 210 210 210 210 211 211 211 211 211 211 211 211 211 211
271 256 244 235 228 223 220 217 214 211 208 207 206 206 204 202 200 198 197 196 197 197 198 198 199 199 199 199 199 199 199 200 200 201 201 202 202 203 203 204 205 205 206 206 206 206 206 206 206 206 205 205 205 205 205 205 205 205 206 206 206 207 207 207 207 207 207 208 208 208 209 209 209 210 210 210 210 211 211 211 211 211 211 211 211 211
276 261 248 238 230 224 220 217 215 212 209 206 205 205 205 204 202 199 197 196 196 196 197 197 198 198 198 198 199 199 199 199 199 199 200 200 201 201 202 203 203 204 205 205 205 205 205 205 205 205 205 205 204 204 204 204 205 205 205 206 206 206 206 206 207 207 207 207 207 208 208 209 209 209 210 210 210 210 211 211 211 211 211 211 211 211
282 264 251 240 232 225 220 217 214 212 209 206 204 203 203 203 202 201 199 197 196 195 196 196 197 197 197 198 198 198 198 198 198 198 199 199 199 200 201 201 202 203 204 204 205 205 205 204 204 204 204 204 204 204 204 204 204 204 205 205 205 206 206 206 206 206 206 207 207 207 208 208 208 209 209 210 210 210 210 210 210 210 210 210 211 211
287 267 253 241 233 226 220 216 213 211 209 207 204 202 202 202 202 201 199 198 196 196 195 196 196 196 196 197 197 197 197 197 197 197 197 198 198 199 199 200 201 202 203 203 204 203 203 203 203 203 203 203 203 203 203 203 204 204 204 205 205 205 205 205 206 206 206 206 207 207 207 208 208 208 209 209 210 210 210 210 210 210 210 210 210 210
293 272 253 241 233 225 220 215 212 210 209 207 204 202 200 200 200 200 199 198 197 196 195 195 195 196 196 196 196 196 196 196 196 196 197 197 197 198 199 199 200 201 202 202 202 202 202 202 202 203 203 203 203 203 203 203 203 203 204 204 204 205 205 205 205 205 205 206 206 206 207 207 208 208 208 209 209 210 210 210 210 210 210 210 210 210
301 277 254 240 231 224 219 215 211 208 207 206 204 202 200 199 198 199 198 198 197 196 195 195 195 195 195 195 195 195 195 195 195 195 196 196 197 197 198 199 200 200 201 201 201 201 201 201 202 202 202 202 202 202 202 202 202 203 203 203 204 204 204 204 204 204 205 205 206 206 206 207 207 208 208 208 209 209 209 209 209 209 209 209 209 210
308 282 257 240 229 222 217 213 209 207 205 204 202 201 199 197 197 197 197 197 196 196 195 195 194 194 194 194 194 194 194 194 194 195 195 196 196 197 198 198 199 199 200 200 200 200 200 201 201 201 201 201 201 201 201 202 202 202 202 203 203 203 203 204 204 204 204 205 205 205 206 206 207 207 208 208 208 209 209 209 209 209 209 209 209 210
315 290 259 238 226 219 214 210 207 204 202 201 200 199 198 196 195 195 195 195 195 195 194 194 194 194 194 194 194 193 193 193 194 194 195 195 196 196 197 198 198 198 198 198 199 199 200 200 200 200 200 200 200 201 201 201 201 201 202 202 202 202 203 203 203 204 204 204 204 205 205 205 206 207 207 207 208 208 208 209 209 209 209 209 209 209
324 298 264 238 223 215 211 207 204 202 200 199 198 197 196 195 194 194 194 194 194 194 193 193 193 193 193 193 193 193 193 193 193 194 194 195 196 196 196 197 197 197 197 198 198 198 199 199 199 199 200 200 200 200 200 200 201 201 201 201 201 201 202 202 203 203 203 204 204 204 204 205 205 206 206 207 207 208 208 208 208 208 208 208 208 208
333 309 270 237 220 211 206 204 201 199 197 196 195 195 194 193 192 192 192 192 193 193 193 192 192 192 192 192 192 192 192 192 193 193 194 195 195 195 196 196 196 196 196 197 197 198 198 198 199 199 199 199 199 200 200 200 200 200 200 200 200 201 201 202 202 203 203 203 203 204 204 204 205 205 206 206 207 207 208 208 208 208 208 208 208 208
340 322 281 238 218 207 202 199 198 196 194 193 193 192 192 191 191 190 190 191 191 191 191 191 191 191 191 191 191 191 192 192 192 193 194 194 195 195 195 195 195 195 195 196 196 197 197 198 198 198 198 199 199 199 200 199 199 199 199 199 199 200 200 201 202 202 202 203 203 203 204 204 204 205 205 206 206 207 207 207 207 207 207 207 208 208
348 334 294 241 215 204 196 194 193 192 191 191 190 189 189 189 189 189 189 189 189 190 190 190 190 190 190 190 190 191 191 191 192 192 193 193 194 194 194 194 194 194 195 195 195 196 196 197 197 197 198 198 199 199 199 199 198 198 199 199 199 199 200 200 201 201 202 202 202 203 203 203 204 204 205 205 206 206 207 207 207 206 207 207 207 208
Height
9986 9989 9993 9996 10000 10004 10008 10013 10018 10023 10028 10033 10038 10044 10049 10056 10062 10068 10076 10083 10091 10098 10106 10115 10124 10133 10142 10151 10161 10169 10179 10188 10198 10207 10217 10228 10239 10251 10263 10274 10286 10297 10307 10317 10326 10334 10344 10353 10363 10373 10384 10395 10406 10416 10426 10436 10445 10453 10462 10471 10481 10491 10500 10509 10518 10528 10538 10546 10554 10563 10572 10581 10589 10596 10604 10611 10619 10626 10634 10641 10648 10655 10662 10668 10674 10678
9983 9986 9989 9993 9996 10000 10004 10009 10013 10018 10023 10028 10034 10039 10044 10050 10056 10063 10069 10077 10084 10092 10100 10108 10118 10126 10135 10144 10154 10163 10172 10181 10190 10200 10210 10221 10233 10244 10256 10269 10280 10291 10301 10309 10318 10326 10335 10344 10354 10364 10375 10386 10397 10408 10418 10428 10437 10445 10454 10464 10473 10483 10492 10501 10511 10521 10531 10539 10548 10557 10566 10574 10583 10590 10598 10606 10613 10620 10627 10634 10642 10649 10655 10661 10666 10672
9979 9982 9985 9989 9992 9996 10000 10004 10009 10014 10019 10024 10029 10034 10039 10045 10051 10057 10064 10071 10079 10086 10094 10103 10111 10120 10129 10138 10146 10156 10165 10174 10183 10193 10203 10214 10226 10238 10250 10261 10273 10283 10293 10301 10309 10318 10326 10335 10345 10356 10367 10378 10389 10399 10410 10420 10429 10438 10446 10456 10466 10476 10484 10494 10503 10513 10523 10533 10541 10551 10559 10568 10576 10584 10592 10599 10607 10614 10621 10628 10635 10642 10648 10654 10661 10667
9976 9978 9981 9985 9989 9993 9996 10000 10005 10009 10014 10019 10024 10030 10035 10040 10046 10052 10059 10066 10073 10081 10089 10097 10105 10113 10122 10131 10139 10149 10158 10168 10177 10186 10197 10208 10219 10231 10242 10253 10264 10274 10284 10293 10301 10310 10319 10328 10339 10349 10360 10371 10381 10392 10403 10413 10422 10431 10439 10449 10459 10468 10478 10486 10496 10506 10516 10525 10534 10544 10553 10561 10569 10578 10586 10594 10601 10608 10615 10622 10629 10636 10643 10649 10655 10661
9973 9975 9978 9981 9985 9989 9993 9996 10001 10006 10010 10015 10020 10025 10030 10036 10041 10047 10054 10061 10068 10075 10083 10091 10099 10107 10116 10124 10133 10142 10151 10161 10170 10180 10190 10201 10211 10223 10233 10244 10255 10266 10276 10285 10294 10304 10313 10323 10333 10343 10353 10364 10374 10384 10395 10406 10415 10424 10432 10441 10451 10461 10470 10479 10489 10499 10508 10518 10528 10537 10546 10554 10563 10571 10579 10587 10594 10601 10608 10616 10623 10629 10636 10643 10649 10656
9970 9973 9976 9978 9982 9985 9989 9993 9997 10001 10006 10011 10016 10021 10026 10031 10036 10043 10049 10056 10063 10070 10078 10085 10093 10101 10109 10118 10126 10136 10145 10154 10164 10173 10183 10193 10204 10214 10225 10236 10247 10258 10268 10279 10289 10298 10308 10318 10327 10336 10346 10356 10366 10376 10387 10398 10407 10416 10424 10434 10444 10453 10463 10471 10481 10491 10501 10511 10520 10529 10538 10547 10556 10564 10573 10580 10588 10594 10602 10609 10616 10622 10629 10636 10643 10650
9968 9971 9973 9976 9979 9983 9986 9989 9993 9998 10002 10007 10011 10017 10022 10027 10033 10038 10044 10050 10057 10064 10072 10079 10087 10095 10103 10111 10121 10129 10138 10148 10157 10166 10176 10186 10196 10206 10217 10228 10239 10251 10261 10272 10282 10292 10301 10310 10319 10329 10338 10348 10358 10368 10379 10389 10399 10408 10418 10426 10436 10445 10454 10464 10473 10483 10493 10503 10513 10522 10531 10539 10548 10556 10565 10573 10581 10588 10594 10602 10609 10615 10623 10629 10637 10644
9966 9968 9971 9974 9977 9980 9983 9987 9991 9994 9999 10003 10008 10013 10018 10023 10028 10033 10039 10045 10052 10059 10066 10074 10082 10089 10098 10106 10114 10123 10132 10141 10150 10159 10169 10179 10189 10199 10210 10221 10232 10243 10254 10264 10274 10284 10294 10303 10312 10321 10331 10340 10350 10360 10371 10381 10391 10401 10410 10419 10428 10438 10447 10456 10465 10476 10486 10496 10505 10514 10523 10531 10540 10549 10557 10565 10573 10581 10588 10595 10603 10609 10616 10623 10631 10638
9964 9966 9969 9972 9974 9978 9981 9984 9988 9991 9996 9999 10004 10009 10014 10018 10024 10029 10035 10041 10048 10054 10061 10068 10076 10084 10091 10099 10108 10117 10126 10134 10143 10153 10162 10172 10182 10192 10203 10213 10224 10235 10246 10257 10267 10277 10286 10296 10305 10314 10324 10333 10343 10353 10363 10373 10383 10393 10403 10412 10421 10431 10440 10448 10458 10469 10479 10489 10498 10506 10514 10524 10533 10541 10549 10558 10566 10574 10581 10588 10596 10603 10609 10617 10624 10631
9961 9964 9966 9969 9973 9976 9979 9982 9985 9989 9993 9996 10001 10005 10010 10014 10020 10025 10031 10037 10043 10049 10056 10063 10070 10078 10086 10094 10103 10111 10119 10128 10137 10146 10156 10165 10175 10185 10195 10206 10217 10228 10238 10249 10259 10270 10279 10289 10298 10308 10317 10326 10336 10346 10356 10366 10376 10386 10396 10404 10414 10424 10433 10443 10453 10463 10473 10483 10491 10499 10508 10516 10525 10533 10542 10551 10559 10567 10574 10582 10589 10596 10603 10610 10618 10625
9959 9961 9964 9967 9970 9973 9976 9979 9983 9986 9990 9994 9998 10002 10007 10011 10016 10021 10026 10032 10038 10044 10051 10058 10065 10073 10080 10088 10097 10105 10113 10122 10131 10140 10149 10159 10168 10178 10188 10199 10209 10220 10231 10242 10253 10263 10273 10282 10291 10301 10310 10319 10329 10339 10349 10359 10369 10379 10388 10398 10408 10418 10427 10437 10447 10457 10467 10476 10484 10492 10500 10509 10518 10526 10534 10543 10552 10560 10568 10576 10583 10590 10597 10604 10612 10619
9956 9959 9961 9964 9968 9971 9974 9977 9981 9984 9988 9991 9995 9999 10003 10008 10013 10018 10023 10028 10034 10041 10047 10053 10061 10068 10076 10083 10091 10099 10108 10116 10124 10134 10143 10153 10162 10171 10181 10192 10203 10213 10224 10235 10246 10256 10266 10275 10284 10294 10303 10313 10323 10332 10342 10352 10362 10372 10381 10391 10401 10411 10421 10431 10441 10450 10459 10468 10476 10484 10493 10501 10510 10519 10528 10536 10545 10554 10561 10569 10577 10584 10591 10598 10606 10613
9954 9957 9959 9962 9965 9968 9971 9974 9978 9981 9984 9988 9992 9996 9999 10004 10009 10014 10019 10025 10031 10037 10043 10049 10056 10063 10071 10078 10086 10094 10102 10110 10118 10127 10136 10146 10155 10165 10175 10185 10196 10206 10217 10228 10238 10249 10258 10268 10278 10287 10296 10306 10316 10325 10335 10345 10355 10365 10375 10384 10395 10405 10414 10424 10433 10442 10451 10459 10468 10476 10485 10494 10503 10512 10521 10529 10539 10547 10555 10563 10571 10578 10586 10593 10599 10606
9953 9954 9957 9959 9963 9966 9969 9972 9975 9979 9982 9986 9989 9994 9998 10003 10007 10012 10016 10022 10028 10033 10039 10046 10052 10059 10066 10073 10081 10088 10096 10104 10113 10121 10130 10139 10148 10158 10168 10178 10188 10199 10209 10221 10231 10241 10251 10261 10271 10281 10290 10299 10309 10318 10328 10338 10348 10358 10368 10378 10388 10398 10408 10416 10425 10434 10443 10451 10459 10469 10478 10488 10496 10506 10514 10523 10533 10541 10549 10557 10565 10573 10580 10587 10594 10600
9951 9953 9955 9958 9960 9963 9966 9969 9973 9976 9980 9984 9988 9992 9996 10000 10004 10009 10013 10018 10024 10029 10036 10042 10048 10054 10061 10068 10076 10083 10091 10099 10107 10115 10124 10133 10141 10151 10161 10171 10181 10191 10202 10213 10223 10233 10244 10254 10264 10274 10283 10293 10302 10311 10321 10331 10341 10351 10362 10371 10381 10391 10400 10409 10418 10427 10436 10444 10454 10463 10473 10482 10491 10500 10509 10518 10526 10535 10543 10551 10559 10567 10574 10581 10588 10594
9949 9951 9953 9956 9958 9961 9964 9967 9971 9974 9978 9981 9986 9989 9993 9997 10001 10006 10011 10016 10021 10026 10032 10038 10044 10050 10057 10064 10071 10078 10086 10093 10101 10109 10118 10126 10135 10144 10154 10164 10174 10184 10195 10205 10216 10226 10236 10247 10257 10267 10276 10286 10296 10305 10314 10324 10335 10345 10355 10365 10374 10384 10393 10403 10411 10421 10429 10438 10448 10458 10468 10476 10486 10494 10503 10512 10521 10529 10538 10546 10553 10561 10568 10575 10582 10588
9947 9949 9951 9954 9956 9959 9962 9965 9968 9972 9975 9979 9983 9986 9990 9994 9999 10003 10008 10013 10018 10023 10028 10034 10039 10046 10052 10059 10066 10073 10080 10088 10095 10103 10111 10119 10129 10138 10148 10158 10168 10178 10188 10198 10208 10218 10229 10240 10251 10261 10270 10280 10289 10299 10309 10319 10329 10339 10349 10358 10368 10377 10387 10396 10405 10414 10423 10432 10442 10452 10461 10471 10480 10489 10498 10507 10516 10524 10532 10540 10548 10555 10563 10569 10576 10583
9945 9948 9949 9952 9954 9957 9960 9963 9966 9969 9973 9976 9980 9984 9988 9993 9997 10001 10006 10010 10015 10020 10024 10030 10036 10042 10048 10054 10061 10068 10075 10083 10090 10098 10106 10114 10123 10132 10143 10152 10161 10171 10181 10191 10201 10211 10223 10234 10244 10254 10264 10274 10284 10293 10303 10313 10323 10333 10343 10352 10361 10371 10380 10389 10399 10408 10416 10426 10436 10446 10456 10466 10474 10483 10493 10501 10510 10519 10527 10534 10542 10549 10557 10564 10571 10578
9944 9946 9948 9949 9952 9954 9958 9960 9964 9967 9970 9974 9978 9982 9986 9989 9994 9998 10003 10007 10012 10016 10021 10027 10033 10038 10044 10050 10056 10063 10070 10078 10084 10093 10101 10109 10118 10127 10136 10146 10155 10164 10174 10184 10194 10204 10216 10227 10237 10247 10258 10268 10278 10288 10298 10307 10317 10326 10336 10346 10355 10364 10374 10383 10393 10401 10410 10420 10430 10440 10450 10460 10469 10478 10487 10496 10505 10513 10521 10529 10537 10544 10551 10558 10566 10573
9942 9944 9946 9948 9950 9953 9955 9958 9961 9964 9968 9971 9975 9979 9983 9987 9991 9996 10000 10004 10009 10014 10019 10024 10029 10034 10041 10047 10053 10059 10066 10073 10080 10088 10095 10103 10111 10121 10131 10140 10149 10158 10168 10177 10187 10198 10209 10220 10231 10241 10251 10261 10271 10281 10291 10301 10311 10320 10330 10339 10349 10358 10367 10377 10386 10395 10404 10414 10424 10434 10444 10454 10464 10473 10481 10491 10499 10508 10516 10524 10531 10539 10546 10553 10560 10567
9941 9942 9944 9946 9948 9950 9953 9956 9958 9962 9965 9969 9973 9976 9980 9984 9989 9993 9997 10002 10006 10011 10016 10021 10026 10031 10037 10043 10049 10056 10062 10068 10075 10082 10089 10098 10106 10115 10124 10134 10143 10151 10161 10171 10181 10191 10203 10214 10224 10235 10246 10256 10266 10276 10285 10294 10304 10314 10324 10333 10342 10351 10361 10371 10380 10389 10399 10408 10419 10429 10439 10449 10458 10467 10476 10484 10493 10502 10510 10518 10526 10533 10540 10547 10554 10561
9939 9941 9942 9944 9946 9948 9951 9953 9956 9959 9963 9966 9969 9973 9977 9981 9986 9990 9994 9999 10004 10008 10013 10017 10022 10028 10034 10040 10046 10051 10058 10064 10070 10077 10084 10093 10101 10109 10119 10128 10136 10145 10154 10164 10174 10185 10197 10208 10218 10229 10239 10249 10259 10269 10279 10289 10298 10308 10318 10327 10336 10346 10355 10364 10374 10383 10393 10403 10414 10424 10433 10443 10451 10460 10469 10478 10487 10496 10504 10512 10519 10527 10534 10541 10548 10556
9938 9939 9941 9943 9944 9946 9948 9951 9953 9956 9959 9963 9966 9970 9974 9979 9983 9987 9992 9996 10001 10005 10009 10014 10020 10026 10031 10037 10042 10048 10054 10059 10066 10073 10080 10088 10095 10104 10113 10122 10131 10139 10148 10158 10168 10179 10191 10202 10213 10223 10233 10243 10253 10263 10273 10283 10293 10302 10311 10321 10330 10339 10349 10358 10368 10378 10388 10398 10409 10418 10427 10436 10445 10454 10463 10471 10481 10489 10498 10506 10513 10521 10528 10535 10543 10549
9937 9938 9939 9941 9943 9944 9946 9949 9951 9954 9957 9961 9964 9968 9972 9976 9981 9985 9989 9994 9998 10003 10008 10013 10018 10023 10028 10033 10039 10044 10049 10056 10062 10069 10076 10083 10089 10098 10107 10116 10125 10134 10142 10151 10162 10174 10185 10196 10206 10216 10226 10237 10247 10257 10267 10277 10286 10296 10306 10314 10324 10333 10343 10353 10362 10373 10383 10393 10402 10411 10421 10429 10439 10448 10457 10466 10474 10483 10491 10499 10507 10514 10522 10529 10536 10544
9936 9937 9938 9939 9941 9943 9945 9947 9949 9952 9955 9958 9962 9966 9969 9973 9977 9981 9985 9990 9995 9999 10004 10009 10014 10018 10023 10029 10035 10040 10046 10051 10058 10064 10071 10078 10085 10093 10103 10111 10120 10128 10136 10146 10157 10168 10179 10189 10199 10209 10220 10231 10241 10251 10261 10271 10281 10290 10299 10309 10318 10328 10338 10347 10357 10368 10378 10388 10397 10406 10414 10424 10433 10443 10452 10461 10469 10478 10486 10493 10501 10508 10515 10523 10530 10538
9936 9936 9937 9938 9939 9941 9943 9945 9948 9950 9953 9956 9959 9962 9965 9969 9973 9978 9983 9987 9991 9996 10001 10006 10010 10015 10021 10027 10032 10037 10042 10048 10054 10060 10066 10073 10081 10089 10099 10107 10115 10123 10131 10141 10152 10163 10174 10183 10193 10203 10214 10224 10234 10244 10254 10265 10274 10284 10294 10304 10313 10323 10333 10343 10353 10363 10373 10382 10391 10400 10409 10419 10429 10438 10447 10455 10464 10472 10479 10488 10494 10502 10509 10516 10524 10531
9935 9936 9936 9937 9938 9939 9941 9943 9945 9948 9951 9953 9956 9960 9964 9967 9971 9975 9979 9983 9988 9993 9998 10003 10008 10014 10019 10024 10029 10034 10039 10045 10050 10056 10063 10069 10077 10086 10094 10102 10109 10118 10126 10136 10147 10158 10168 10177 10187 10197 10208 10218 10228 10238 10249 10259 10269 10279 10289 10299 10309 10318 10328 10338 10348 10358 10368 10377 10386 10395 10404 10414 10424 10433 10441 10449 10458 10466 10474 10481 10488 10495 10503 10509 10517 10524
9934 9935 9935 9936 9937 9938 9939 9941 9943 9946 9948 9951 9954 9958 9961 9964 9968 9971 9976 9981 9986 9991 9995 10000 10005 10011 10016 10021 10025 10031 10037 10042 10047 10053 10059 10066 10073 10081 10089 10097 10105 10113 10121 10131 10141 10152 10161 10171 10180 10190 10201 10211 10221 10232 10243 10254 10264 10274 10284 10294 10304 10314 10324 10334 10343 10353 10363 10372 10381 10390 10399 10409 10418 10426 10435 10443 10451 10459 10467 10474 10482 10489 10496 10503 10510 10518
9934 9934 9934 9935 9936 9937 9938 9939 9941 9943 9946 9949 9952 9955 9958 9962 9965 9969 9973 9978 9982 9986 9991 9996 10002 10008 10013 10018 10023 10029 10034 10039 10044 10049 10056 10063 10069 10076 10084 10093 10101 10109 10117 10126 10136 10146 10156 10164 10174 10184 10194 10205 10216 10227 10238 10248 10259 10269 10279 10289 10299 10309 10318 10328 10338 10348 10357 10366 10375 10384 10394 10403 10412 10420 10428 10436 10444 10453 10460 10468 10474 10481 10488 10496 10503 10511
9933 9933 9934 9934 9935 9936 9936 9938 9939 9941 9944 9946 9949 9953 9956 9959 9963 9966 9971 9974 9978 9982 9987 9993 9998 10004 10009 10016 10021 10026 10031 10035 10041 10047 10053 10059 10064 10072 10081 10090 10098 10104 10112 10121 10131 10140 10149 10159 10169 10179 10189 10199 10211 10221 10233 10243 10253 10264 10274 10284 10294 10303 10313 10322 10332 10341 10350 10359 10369 10378 10388 10397 10406 10414 10422 10430 10438 10446 10453 10461 10468 10474 10482 10489 10498 10506
9932 9933 9933 9934 9934 9935 9936 9936 9938 9939 9941 9944 9946 9949 9953 9956 9960 9964 9968 9971 9974 9979 9984 9989 9994 10000 10006 10011 10016 10021 10026 10032 10038 10044 10049 10054 10061 10069 10078 10086 10093 10099 10107 10116 10124 10134 10143 10152 10162 10173 10183 10194 10205 10216 10226 10237 10248 10258 10268 10278 10288 10297 10306 10316 10326 10334 10344 10353 10363 10372 10381 10390 10399 10408 10416 10424 10431 10439 10447 10454 10461 10468 10476 10484 10493 10501
9931 9932 9933 9933 9934 9934 9935 9936 9937 9938 9939 9942 9944 9947 9950 9953 9957 9961 9964 9968 9971 9976 9980 9985 9990 9996 10001 10007 10012 10018 10024 10030 10036 10041 10045 10051 10058 10066 10075 10082 10088 10095 10103 10111 10119 10127 10136 10145 10155 10166 10177 10188 10199 10210 10221 10231 10241 10252 10261 10271 10281 10291 10300 10309 10319 10328 10338 10347 10356 10366 10375 10384 10393 10402 10410 10418 10425 10433 10440 10448 10455 10462 10470 10479 10488 10496
9931 9931 9932 9933 9933 9934 9934 9936 9936 9938 9939 9940 9942 9944 9948 9951 9954 9958 9961 9965 9969 9973 9977 9981 9986 9991 9997 10003 10008 10014 10021 10027 10032 10036 10041 10048 10056 10064 10072 10079 10085 10092 10099 10106 10114 10123 10131 10140 10150 10161 10172 10183 10194 10204 10214 10225 10236 10246 10255 10264 10274 10284 10294 10303 10313 10323 10332 10341 10350 10360 10369 10379 10388 10396 10404 10412 10419 10427 10434 10442 10449 10457 10466 10475 10484 10492
9931 9931 9931 9932 9933 9933 9934 9935 9936 9937 9938 9939 9941 9943 9945 9948 9951 9955 9958 9962 9966 9970 9974 9978 9983 9988 9993 9998 10004 10010 10016 10021 10026 10031 10038 10044 10053 10060 10068 10075 10082 10088 10095 10102 10110 10119 10128 10138 10148 10158 10168 10178 10188 10198 10209 10219 10229 10239 10249 10259 10268 10278 10288 10298 10308 10318 10327 10336 10345 10354 10364 10373 10383 10391 10399 10407 10414 10422 10429 10436 10444 10453 10462 10471 10480 10489
9930 9930 9931 9931 9932 9933 9933 9934 9935 9936 9938 9939 9940 9942 9944 9946 9949 9953 9956 9959 9963 9968 9971 9976 9980 9984 9989 9994 9999 10005 10010 10016 10021 10027 10034 10041 10049 10057 10064 10071 10078 10084 10090 10098 10105 10114 10124 10133 10143 10154 10163 10173 10183 10193 10203 10213 10223 10233 10243 10253 10263 10273 10283 10293 10303 10313 10322 10331 10341 10350 10359 10369 10378 10386 10394 10402 10409 10417 10424 10432 10440 10449 10458 10468 10476 10484
9930 9930 9930 9931 9931 9932 9933 9934 9934 9936 9937 9938 9940 9941 9943 9945 9948 9951 9954 9958 9961 9965 9969 9973 9977 9981 9986 9990 9995 10000 10005 10011 10016 10023 10029 10037 10045 10053 10061 10068 10074 10080 10086 10094 10101 10110 10119 10128 10137 10147 10158 10168 10178 10188 10198 10207 10217 10227 10238 10248 10258 10268 10278 10288 10298 10308 10316 10326 10336 10346 10355 10364 10373 10381 10390 10398 10405 10413 10420 10428 10436 10445 10455 10464 10473 10481
9929 9930 9930 9931 9931 9931 9932 9933 9934 9936 9937 9938 9939 9941 9943 9944 9946 9949 9953 9956 9960 9964 9968 9971 9975 9979 9983 9987 9991 9996 10001 10007 10013 10019 10026 10034 10042 10050 10057 10063 10070 10077 10083 10090 10098 10106 10115 10123 10133 10142 10151 10161 10171 10181 10191 10201 10212 10223 10234 10244 10254 10264 10274 10284 10293 10303 10313 10323 10332 10341 10351 10359 10368 10377 10384 10393 10400 10408 10415 10423 10432 10441 10451 10459 10468 10476
9929 9929 9929 9930 9931 9931 9932 9933 9934 9935 9936 9938 9939 9941 9942 9944 9946 9948 9951 9954 9958 9962 9966 9969 9973 9976 9980 9984 9988 9993 9998 10003 10009 10016 10023 10031 10038 10046 10053 10059 10066 10073 10079 10086 10094 10103 10111 10119 10128 10138 10147 10156 10165 10174 10184 10195 10207 10219 10229 10239 10249 10259 10269 10279 10289 10299 10309 10319 10328 10337 10346 10355 10364 10371 10379 10387 10394 10403 10410 10419 10428 10437 10446 10455 10463 10471
9929 9929 9929 9929 9930 9931 9931 9933 9933 9934 9936 9938 9939 9941 9942 9944 9946 9948 9950 9953 9957 9961 9964 9968 9971 9975 9978 9982 9986 9990 9995 10000 10006 10013 10020 10028 10034 10042 10049 10056 10062 10069 10075 10083 10091 10098 10106 10114 10123 10131 10140 10149 10159 10169 10180 10191 10203 10213 10223 10233 10243 10253 10264 10274 10284 10294 10304 10314 10323 10333 10342 10350 10358 10366 10374 10382 10390 10398 10406 10414 10423 10433 10442 10451 10459 10466
9929 9929 9929 9929 9930 9930 9931 9932 9933 9934 9935 9937 9939 9941 9943 9944 9945 9947 9949 9952 9955 9959 9963 9966 9970 9974 9978 9981 9984 9989 9994 9999 10004 10011 10018 10024 10031 10038 10045 10051 10058 10064 10071 10078 10086 10093 10101 10108 10116 10125 10134 10144 10154 10165 10177 10188 10198 10208 10217 10228 10238 10249 10259 10269 10279 10289 10299 10309 10318 10328 10336 10344 10352 10360 10369 10377 10384 10393 10401 10409 10418 10428 10438 10446 10454 10462
9929 9929 9929 9929 9929 9930 9931 9932 9933 9934 9935 9936 9938 9940 9943 9944 9946 9947 9949 9951 9954 9957 9961 9965 9969 9972 9976 9980 9984 9988 9993 9998 10004 10009 10015 10021 10028 10034 10041 10048 10054 10060 10066 10073 10080 10087 10094 10103 10112 10122 10132 10141 10151 10161 10172 10183 10193 10203 10213 10223 10233 10243 10252 10263 10273 10284 10294 10304 10313 10322 10330 10338 10347 10356 10364 10373 10380 10388 10396 10405 10415 10424 10434 10442 10449 10457
9930 9929 9929 9929 9930 9930 9931 9931 9933 9934 9935 9936 9938 9939 9941 9944 9946 9948 9949 9951 9953 9956 9959 9963 9966 9970 9974 9978 9983 9988 9992 9997 10002 10007 10013 10018 10024 10031 10037 10043 10049 10056 10061 10068 10074 10082 10091 10099 10109 10119 10129 10139 10148 10158 10167 10177 10187 10197 10208 10218 10226 10235 10244 10256 10268 10279 10289 10300 10309 10317 10324 10334 10343 10351 10360 10368 10377 10386 10394 10403 10413 10422 10431 10439 10448 10454
9930 9929 9929 9929 9930 9930 9931 9931 9933 9933 9934 9936 9937 9939 9941 9943 9946 9948 9949 9951 9954 9956 9959 9962 9965 9969 9973 9977 9981 9986 9991 9995 10000 10005 10010 10016 10022 10028 10033 10039 10045 10051 10056 10063 10071 10079 10088 10098 10107 10116 10125 10133 10142 10152 10162 10172 10182 10192 10202 10212 10221 10231 10242 10254 10265 10276 10286 10295 10304 10312 10321 10330 10339 10348 10356 10364 10373 10381 10391 10401 10409 10418 10426 10435 10444 10452
9931 9930 9930 9930 9930 9931 9931 9931 9933 9933 9934 9936 9937 9938 9940 9942 9944 9947 9949 9951 9954 9956 9959 9961 9964 9968 9972 9976 9980 9984 9989 9994 9998 10003 10008 10014 10019 10024 10030 10035 10041 10046 10053 10060 10068 10077 10086 10096 10104 10112 10119 10128 10137 10147 10156 10167 10177 10188 10198 10206 10216 10228 10240 10251 10261 10271 10280 10289 10298 10306 10316 10326 10334 10343 10351 10360 10369 10378 10387 10396 10405 10414 10423 10431 10439 10448
9931 9930 9930 9930 9930 9931 9931 9932 9933 9933 9934 9936 9937 9939 9940 9942 9944 9946 9949 9951 9954 9956 9959 9961 9964 9968 9971 9975 9979 9983 9988 9992 9996 10001 10006 10011 10016 10021 10026 10031 10037 10044 10051 10058 10067 10076 10084 10092 10099 10106 10114 10124 10134 10144 10153 10163 10172 10181 10191 10200 10211 10223 10233 10242 10251 10262 10273 10283 10293 10302 10312 10321 10329 10339 10348 10358 10366 10375 10383 10392 10401 10410 10420 10429 10438 10445
9931 9931 9931 9931 9931 9931 9931 9932 9933 9934 9934 9936 9937 9939 9940 9942 9944 9946 9948 9951 9953 9956 9958 9961 9964 9968 9971 9974 9978 9982 9986 9991 9995 9999 10004 10009 10014 10018 10023 10029 10036 10043 10049 10057 10066 10074 10081 10087 10094 10101 10111 10120 10130 10140 10149 10159 10168 10175 10184 10194 10206 10218 10227 10236 10248 10259 10269 10278 10288 10298 10308 10317 10326 10336 10345 10354 10361 10370 10379 10388 10398 10407 10416 10425 10434 10441
9932 9932 9931 9931 9931 9931 9932 9933 9933 9934 9935 9936 9937 9939 9940 9942 9944 9946 9948 9951 9953 9956 9958 9961 9964 9967 9971 9974 9978 9981 9985 9989 9994 9998 10003 10007 10011 10016 10022 10028 10034 10041 10049 10056 10063 10071 10078 10084 10091 10100 10109 10118 10127 10136 10146 10155 10164 10172 10181 10192 10203 10214 10225 10236 10248 10258 10268 10276 10284 10294 10304 10314 10324 10333 10341 10348 10356 10366 10376 10385 10394 10404 10413 10421 10430 10438
9933 9933 9932 9932 9931 9932 9932 9933 9934 9934 9935 9936 9938 9939 9941 9942 9944 9946 9948 9951 9953 9956 9958 9961 9964 9967 9970 9974 9978 9981 9985 9989 9993 9997 10001 10006 10011 10016 10021 10028 10034 10041 10048 10054 10061 10068 10076 10083 10090 10098 10106 10114 10123 10131 10140 10149 10159 10169 10181 10191 10201 10213 10223 10233 10243 10252 10261 10271 10281 10291 10301 10311 10320 10329 10337 10346 10355 10364 10373 10383 10392 10401 10410 10418 10426 10434
9934 9933 9933 9933 9933 9933 9933 9933 9934 9935 9936 9936 9938 9939 9941 9943 9944 9946 9948 9951 9953 9956 9958 9961 9964 9967 9970 9974 9978 9981 9984 9988 9993 9996 10001 10006 10011 10016 10021 10028 10034 10040 10047 10054 10061 10068 10075 10081 10089 10096 10103 10111 10119 10127 10135 10143 10153 10164 10178 10188 10198 10208 10218 10228 10236 10246 10256 10268 10278 10289 10298 10308 10316 10324 10333 10343 10353 10362 10369 10378 10388 10397 10406 10414 10423 10430
9935 9934 9934 9934 9933 9933 9934 9934 9935 9936 9936 9937 9938 9939 9941 9943 9944 9946 9948 9951 9953 9956 9958 9961 9964 9967 9971 9974 9978 9981 9984 9988 9992 9997 10001 10006 10011 10017 10023 10028 10034 10041 10047 10053 10060 10067 10073 10080 10088 10095 10102 10109 10117 10124 10133 10141 10151 10161 10173 10185 10195 10204 10213 10223 10234 10244 10256 10266 10276 10286 10296 10305 10314 10323 10331 10341 10349 10356 10364 10374 10384 10393 10401 10410 10418 10426
9936 9936 9935 9934 9934 9934 9934 9935 9936 9936 9937 9938 9939 9940 9941 9943 9945 9947 9949 9951 9953 9956 9958 9961 9964 9968 9971 9974 9978 9981 9984 9989 9993 9997 10002 10007 10013 10018 10024 10029 10036 10041 10047 10053 10059 10065 10071 10078 10084 10093 10100 10108 10115 10123 10131 10140 10150 10160 10171 10182 10192 10201 10209 10219 10231 10242 10253 10263 10273 10283 10294 10304 10313 10321 10330 10338 10345 10353 10362 10371 10381 10389 10398 10406 10414 10421